Eastsound, WA
on Tuesday, February 5, 2013

Tuesday
Previous Day Next Day
Daily Summary
 ActualAverage (KBLI)Record (KBLI)
Temperature
Mean Temperature °F 40°F  
Max Temperature 48°F 48°F 60°F (1963)
Min Temperature 41°F 33°F 10°F (1949)
Degree Days
Heating Degree Days 20 25  
Month to date heating degree days 125  
Cooling Degree Days 0 0  
Month to date cooling degree days 0  
Year to date cooling degree days 0  
Moisture
Dew Point 41°F   
Average Humidity 83    
Maximum Humidity 100    
Minimum Humidity 76    
Precipitation
Precipitation 0.00 in 0.11 in 1.07 in (1965)
Month to date precipitation 0.58  
Year to date precipitation 5.25  
Wind
Wind Speed 6 mph   
Max Wind Speed 13 mph   
Max Gust Speed 22 mph   
Visibility 10 miles   
Events Rain   

Key: T is trace of precipitation, MM is missing value
Source: NWS Daily Summary
Time(PST)TemperatureDew PointHumidity Pressure Visibility Wind DirectionWind SpeedGust SpeedPrecipitationEvents Conditions
12:15 AM 41.0°F 41.0°F 100% 29.81 in 8.0 miles Calm Calm - N/A   Partly Cloudy
12:35 AM 42.8°F 41.0°F 93% 29.80 in 9.0 miles Calm Calm - N/A   Scattered Clouds
12:55 AM 41.0°F 41.0°F 100% 29.80 in 8.0 miles Calm Calm - N/A   Mostly Cloudy
1:15 AM 41.0°F 41.0°F 100% 29.78 in 8.0 miles North - - N/A   Scattered Clouds
1:35 AM 42.8°F 41.0°F 93% 29.78 in 10.0 miles Calm Calm - N/A   Mostly Cloudy
1:55 AM 46.4°F 41.0°F 81% 29.78 in 10.0 miles SSW 8.1 mph - N/A   Overcast
2:15 AM 46.4°F 41.0°F 81% 29.78 in 10.0 miles South 8.1 mph - N/A   Overcast
2:55 AM 44.6°F 41.0°F 87% 29.80 in 10.0 miles SSW 12.7 mph - N/A   Mostly Cloudy
3:15 AM 46.4°F 41.0°F 81% 29.80 in 10.0 miles SSW 11.5 mph - N/A   Scattered Clouds
3:35 AM 46.4°F 41.0°F 81% 29.79 in 10.0 miles South 10.4 mph - N/A   Mostly Cloudy
3:55 AM 46.4°F 41.0°F 81% 29.79 in 9.0 miles South 9.2 mph - N/A Rain Light Rain
4:15 AM 46.4°F 39.2°F 76% 29.78 in 10.0 miles South 5.8 mph - N/A Rain Light Rain
4:35 AM 46.4°F 41.0°F 81% 29.77 in 9.0 miles South 9.2 mph - N/A Rain Light Rain
4:55 AM 46.4°F 41.0°F 81% 29.77 in 10.0 miles South 10.4 mph 16.1 mph N/A   Clear
5:15 AM 46.4°F 41.0°F 81% 29.78 in 10.0 miles South 10.4 mph 17.3 mph N/A   Partly Cloudy
5:55 AM 46.4°F 41.0°F 81% 29.77 in 10.0 miles South 9.2 mph - N/A   Scattered Clouds
6:15 AM 46.4°F 39.2°F 76% 29.76 in 10.0 miles South 9.2 mph 16.1 mph N/A   Scattered Clouds
6:35 AM 46.4°F 39.2°F 76% 29.76 in 10.0 miles South 10.4 mph 20.7 mph N/A   Scattered Clouds
6:55 AM 46.4°F 39.2°F 76% 29.77 in 10.0 miles South 10.4 mph 19.6 mph N/A   Mostly Cloudy
7:15 AM 46.4°F 39.2°F 76% 29.77 in 10.0 miles South 12.7 mph 19.6 mph N/A   Mostly Cloudy
7:35 AM 46.4°F 39.2°F 76% 29.78 in 10.0 miles South 12.7 mph 20.7 mph N/A   Overcast
7:55 AM 46.4°F 39.2°F 76% 29.78 in 10.0 miles South 12.7 mph 21.9 mph N/A   Mostly Cloudy
8:15 AM 46.4°F 39.2°F 76% 29.79 in 10.0 miles South 11.5 mph 17.3 mph N/A   Mostly Cloudy
8:55 AM 46.4°F 41.0°F 81% 29.80 in 10.0 miles SSW 12.7 mph 19.6 mph N/A   Scattered Clouds
9:15 AM 46.4°F 41.0°F 81% 29.81 in 10.0 miles South 8.1 mph 17.3 mph N/A   Overcast
9:35 AM 46.4°F 41.0°F 81% 29.81 in 10.0 miles South 4.6 mph - N/A   Mostly Cloudy
9:55 AM 46.4°F 41.0°F 81% 29.80 in 10.0 miles South 8.1 mph - N/A   Scattered Clouds
10:15 AM 46.4°F 41.0°F 81% 29.80 in 10.0 miles South 6.9 mph - N/A   Clear
10:35 AM 46.4°F 41.0°F 81% 29.80 in 10.0 miles South 5.8 mph - N/A   Clear
11:15 AM 46.4°F 41.0°F 81% 29.80 in 10.0 miles South 6.9 mph - N/A   Partly Cloudy
11:35 AM 46.4°F 41.0°F 81% 29.80 in 10.0 miles South 6.9 mph - N/A   Mostly Cloudy
11:55 AM 46.4°F 41.0°F 81% 29.80 in 10.0 miles South 5.8 mph - N/A   Overcast
12:15 PM 46.4°F 41.0°F 81% 29.79 in 10.0 miles SSE 4.6 mph - N/A   Overcast
12:35 PM 46.4°F 41.0°F 81% 29.78 in 10.0 miles SSE 4.6 mph - N/A   Overcast
12:55 PM 46.4°F 41.0°F 81% 29.78 in 10.0 miles South 9.2 mph - N/A   Overcast
1:15 PM 46.4°F 41.0°F 81% 29.78 in 10.0 miles SSW 10.4 mph 18.4 mph N/A   Mostly Cloudy
1:35 PM 46.4°F 42.8°F 87% 29.76 in 10.0 miles South 11.5 mph 17.3 mph N/A   Scattered Clouds
1:55 PM 48.2°F 42.8°F 82% 29.75 in 10.0 miles South 5.8 mph - N/A   Partly Cloudy
2:15 PM 48.2°F 41.0°F 76% 29.75 in 10.0 miles South 9.2 mph - N/A   Partly Cloudy
2:35 PM 48.2°F 41.0°F 76% 29.75 in 10.0 miles South 4.6 mph - N/A   Clear
3:15 PM 48.2°F 41.0°F 76% 29.76 in 10.0 miles South 5.8 mph - N/A   Partly Cloudy
3:35 PM 48.2°F 41.0°F 76% 29.76 in 10.0 miles South 8.1 mph - N/A   Clear
3:55 PM 48.2°F 41.0°F 76% 29.75 in 10.0 miles South 5.8 mph - N/A   Partly Cloudy
4:15 PM 48.2°F 41.0°F 76% 29.75 in 10.0 miles South 8.1 mph - N/A   Partly Cloudy
4:35 PM 48.2°F 41.0°F 76% 29.73 in 10.0 miles South 10.4 mph 18.4 mph N/A   Scattered Clouds
4:55 PM 48.2°F 41.0°F 76% 29.74 in 10.0 miles South 11.5 mph 20.7 mph N/A   Partly Cloudy
5:15 PM 46.4°F 41.0°F 81% 29.75 in 10.0 miles South 11.5 mph 19.6 mph N/A Rain Light Rain
5:55 PM 46.4°F 42.8°F 87% 29.75 in 10.0 miles South 6.9 mph - N/A Rain Light Rain
6:15 PM 46.4°F 42.8°F 87% 29.76 in 10.0 miles SSW 9.2 mph - N/A   Clear
6:35 PM 46.4°F 42.8°F 87% 29.77 in 8.0 miles SSW 10.4 mph - N/A Rain Light Rain
7:15 PM 44.6°F 39.2°F 81% 29.78 in 10.0 miles South 3.5 mph - N/A   Scattered Clouds
7:35 PM 42.8°F 39.2°F 87% 29.78 in 10.0 miles SSW 5.8 mph - N/A   Scattered Clouds
7:55 PM 44.6°F 39.2°F 81% 29.78 in 10.0 miles SW 11.5 mph 17.3 mph N/A Rain Light Rain
8:15 PM 44.6°F 39.2°F 81% 29.78 in 10.0 miles South 8.1 mph - N/A   Partly Cloudy
8:35 PM 44.6°F 39.2°F 81% 29.79 in 10.0 miles South 6.9 mph - N/A   Clear
8:55 PM 44.6°F 41.0°F 87% 29.80 in 10.0 miles SE 3.5 mph - N/A   Clear
9:15 PM 44.6°F 39.2°F 81% 29.82 in 10.0 miles Calm Calm - N/A   Scattered Clouds
9:35 PM 44.6°F 41.0°F 87% 29.83 in 10.0 miles Calm Calm - N/A   Mostly Cloudy
9:55 PM 42.8°F 41.0°F 93% 29.83 in 10.0 miles Calm Calm - N/A   Mostly Cloudy
10:15 PM 44.6°F 41.0°F 87% 29.84 in 10.0 miles SSW 6.9 mph - N/A   Overcast
10:35 PM 42.8°F 41.0°F 93% 29.85 in 3.0 miles North - - N/A Rain Light Rain
10:55 PM 42.8°F 41.0°F 93% 29.85 in 4.0 miles SW 6.9 mph - N/A   Overcast
11:15 PM 42.8°F 41.0°F 93% 29.86 in 10.0 miles South 5.8 mph - N/A   Mostly Cloudy
11:35 PM 42.8°F 41.0°F 93% 29.86 in 10.0 miles South 4.6 mph - N/A   Mostly Cloudy
11:55 PM 42.8°F 41.0°F 93% 29.86 in 10.0 miles South 8.1 mph - N/A   Scattered Clouds
Moon Phase
Feb. 05 Feb. 10 Feb. 17 Feb. 25 Mar. 04
Sunrise:07:35 AM (PST) Moon Rise:03:32 AM (PST)2/5
Sunset:05:17 PM (PST) Moon Set:12:29 PM (PST)2/5

Copyright © 2014 The Weather Underground, Inc.